This demonstration page uses our WeatherBlox Daily Observations layout. Learn more.

Left ArrowRight Arrow

53.62937, 11.41316

Hourly Observations for December 2, 2018

Temp ( °F °C ) Dew Point ( °F °C ) Humidity (%) Winds ( mph kmh ) Pressure ( in mb ) Visibility ( mi km ) Precip ( " mm )
6:50 am 06:50 Mostly Cloudy with Drizzle 45 7 41 5 87 87 SE 9 15 29.53 1000 30 48 N/A
7:20 am 07:20 Mostly Cloudy 45 7 43 6 93 93 SE 9 15 29.53 1000 30 48 N/A
7:50 am 07:50 Mostly Cloudy 45 7 41 5 87 87 SSE 7 11 29.50 999 30 48 N/A
8:20 am 08:20 Mostly Cloudy 45 7 41 5 87 87 SSE 7 11 29.50 999 30 48 N/A
8:50 am 08:50 Mostly Cloudy with Light Rain 45 7 41 5 87 87 SSE 7 11 29.50 999 30 48 N/A
9:20 am 09:20 Mostly Cloudy with Light Rain 45 7 43 6 93 93 SSE 7 11 29.50 999 5 8 N/A
9:50 am 09:50 Mostly Cloudy with Light Rain 45 7 43 6 93 93 SSE 7 11 29.50 999 4 7 N/A
10:20 am 10:20 Mostly Cloudy with Light Rain 45 7 43 6 93 93 SSE 7 11 29.47 998 5 8 N/A
10:50 am 10:50 Mostly Cloudy with Light Rain 45 7 43 6 93 93 SSE 7 11 29.47 998 30 48 N/A
11:20 am 11:20 Mostly Cloudy with Light Rain 45 7 43 6 93 93 SSE 6 9 29.47 998 5 8 N/A
11:50 am 11:50 Mostly Cloudy with Light Rain 45 7 45 7 100 100 SSE 7 11 29.44 997 5 8 N/A
12:20 pm 12:20 Mostly Cloudy 46 8 45 7 93 93 SSE 5 7 29.44 997 6 9 N/A
12:50 pm 12:50 Mostly Cloudy with Light Rain 46 8 45 7 93 93 S 6 9 29.41 996 6 9 N/A
1:20 pm 13:20 Mostly Cloudy with Light Rain 46 8 45 7 93 93 S 6 9 29.41 996 6 9 N/A
1:50 pm 13:50 Mostly Cloudy with Light Rain 46 8 45 7 93 93 SSE 6 9 29.41 996 6 9 N/A
2:20 pm 14:20 Mostly Cloudy 46 8 45 7 93 93 SSE 5 7 29.38 995 6 9 N/A
2:50 pm 14:50 Mostly Cloudy 46 8 46 8 100 100 S 6 9 29.38 995 4 6 N/A
3:20 pm 15:20 Cloudy with Light Rain 46 8 46 8 100 100 S 7 11 29.38 995 2 3 N/A
3:50 pm 15:50 Cloudy with Mist and Fog 48 9 46 8 94 94 S 7 11 29.38 995 3 5 N/A
4:20 pm 16:20 Cloudy with Mist and Fog 48 9 46 8 94 94 S 6 9 29.38 995 2 4 N/A
4:50 pm 16:50 Mostly Cloudy with Drizzle 48 9 46 8 94 94 S 8 13 29.38 995 3 5 N/A
5:20 pm 17:20 Mostly Cloudy 48 9 48 9 100 100 S 9 15 29.38 995 30 48 N/A
5:50 pm 17:50 Cloudy 48 9 48 9 100 100 S 8 13 29.38 995 4 7 N/A
6:20 pm 18:20 Mostly Cloudy 50 10 48 9 94 94 S 8 13 29.38 995 4 6 N/A
6:50 pm 18:50 Mostly Cloudy 52 11 50 10 94 94 SSW 9 15 29.38 995 30 48 N/A

Powered by AerisWeather